Flag for Ukraine Weather past 2 weeks in Odesa, Ukraine

Now
46 °F

Clear.


Feels Like: 44 °F
Forecast: 42 / 49 °F
Wind: 6 mph from Northeast

Location: Odesa Airport

Current Time: Feb 27, 2015 at 11:37:19 PM

Latest Report: Feb 27, 2015 at 11:00 PM


Visibility: 10 mi

Pressure: 29.98 "Hg

Humidity: 93%

Dew point: 45 °F

Location of OdesaLocation

Historic Weather in Odesa — Graph

°F

Odesa temperature yesterday

Maximum temperature yesterday: 43 °F (at 5:00 PM)
Minimum temperature yesterday: 36 °F (at 3:30 AM)
Average temperature yesterday: 39 °F

Past Weeks' High & Low Weather Summary

 TemperatureHumidityPressure
High54 °F (Feb 27, 2:00 PM)100% (Feb 14, 9:30 AM)30.63 "Hg (Feb 14, 9:30 AM)
Low14 °F (Feb 17, 5:30 AM)34% (Feb 18, 12:30 PM)29.86 "Hg (Feb 24, 12:00 PM)
Average34 °F80%30.20 "Hg
* Reported Feb 12 10:00 PM — Feb 27 10:00 PM, Odesa, Weather by CustomWeather, © 2015

Note: Actual official high and low records may vary slightly from our data, if they occured in-between our weather recording intervals... More about our weather records

Advertising

Odesa weather history for previous 24 hours

 ConditionsComfort  
Time TempWeatherWind HumidityBarometerVisibility
10:00 PM
Fri, Feb 27
46 °FClear.6 mph87%29.98 "Hg10 mi
9:30 PM46 °FClear.6 mph87%29.98 "Hg10 mi
9:00 PM46 °FClear.3 mph87%29.98 "Hg10 mi
8:30 PM46 °FClear.1 mph87%29.98 "Hg10 mi
8:00 PM46 °FClear.1 mph87%30.01 "Hg10 mi
7:30 PM46 °FClear.No wind82%30.01 "Hg10 mi
7:00 PM46 °FClear.3 mph87%30.01 "Hg10 mi
6:30 PM46 °FClear.3 mph87%30.01 "Hg10 mi
6:00 PM46 °FClear.3 mph87%30.01 "Hg10 mi
5:30 PM46 °FSunny.No wind87%30.01 "Hg10 mi
5:00 PM48 °FSunny.No wind82%30.01 "Hg10 mi
4:30 PM50 °FSunny.1 mph76%30.01 "Hg10 mi
4:00 PM52 °FSunny.3 mph77%30.01 "Hg10 mi
3:30 PM54 °FSunny.6 mph67%30.04 "Hg10 mi
3:00 PM54 °FSunny.6 mph67%30.04 "Hg10 mi
2:30 PM54 °FSunny.3 mph67%30.04 "Hg10 mi
2:00 PM54 °FSunny.3 mph67%30.04 "Hg10 mi
1:30 PM52 °FSunny.6 mph72%30.07 "Hg10 mi
1:00 PM52 °FSunny.No wind72%30.07 "Hg10 mi
12:30 PM50 °FBroken clouds.No wind88%30.07 "HgN/A
12:00 PM48 °FPartly sunny.3 mph87%30.07 "HgN/A
11:30 AM45 °FFog.3 mph93%30.09 "Hg3 mi
11:00 AM45 °FFog.No wind87%30.09 "Hg2 mi
10:30 AM43 °FFog.No wind100%30.09 "Hg3 mi
10:00 AM43 °FFog.No wind93%30.09 "Hg1 mi
9:30 AM41 °FDense fog.No wind100%30.09 "Hg0 mi
9:00 AM41 °FFog.1 mph100%30.09 "Hg0 mi
8:30 AM41 °FFog.3 mph93%30.09 "Hg0 mi
8:00 AM41 °FFog.No wind93%30.09 "Hg0 mi
7:30 AM39 °FFog.3 mph100%30.09 "Hg0 mi
7:00 AM41 °FFog.6 mph93%30.09 "Hg0 mi
6:30 AM41 °FClear.No wind93%30.07 "Hg0 mi
5:30 AM41 °FFog.3 mph93%30.07 "Hg3 mi
5:00 AM43 °FClear.6 mph87%30.07 "Hg10 mi
4:30 AM43 °FClear.6 mph93%30.07 "Hg10 mi
4:00 AM43 °FClear.8 mph93%30.07 "Hg10 mi
3:30 AM43 °FClear.10 mph93%30.07 "Hg10 mi
3:00 AM43 °FClear.8 mph93%30.07 "Hg10 mi
2:30 AM45 °FClear.10 mph87%30.07 "Hg10 mi
2:00 AM43 °FClear.10 mph93%30.07 "Hg10 mi
1:30 AM43 °FClear.13 mph87%30.07 "Hg10 mi
1:00 AM41 °FClear.10 mph93%30.07 "Hg10 mi
12:30 AM41 °FPassing clouds.10 mph100%30.07 "HgN/A
12:00 AM41 °FLow clouds.13 mph93%30.07 "Hg1 mi
11:30 PM
Thu, Feb 26
41 °FFog.10 mph100%30.07 "Hg0 mi
11:00 PM41 °FFog.8 mph100%30.09 "Hg0 mi
Weather by CustomWeather, © 2015

See weather overviewHow to use our weather pages